Location: College Park
(38.9810°N, 76.9370°W)
Time: 12:34:13

Envisat - Pass Details

Date: 12 March 2018
Orbit: 764 x 766 km, 98.2° (Epoch: 19 March)

Event Time Altitude Azimuth Distance (km) Brightness Sun altitude
Rises 21:26:38 0° 194° (SSW) 3,216 6.2 -26.6°
Reaches altitude 10° 21:29:14 10° 207° (SSW) 2,294 5.5 -27.1°
Maximum altitude 21:33:31 28° 265° (W) 1,424 4.9 -27.9°
Drops below altitude 10° 21:37:50 10° 323° (NW) 2,307 6.2 -28.7°
Sets 21:40:29 0° 335° (NNW) 3,238 6.9 -29.1°
